This is the latest recevied weather packets stored in our database for station/object DL3NDS-WX. If no packets are shown the sender has not sent any weather packets the latest 1 day(s).
| Time | Temp. | Humidity | Pressure | Rain* | Wind** | Luminosity | Snow |
|---|---|---|---|---|---|---|---|
| 1777954016 | 12.22° C | 84% | 1011.1 hPa | 0 mm | 3.13 m/s, 320° | 0 W/m² | - |
| 1777953975 | 12.22° C | 84% | 1011 hPa | 0 mm | 3.13 m/s, 340° | 0 W/m² | - |
| 1777953941 | 12.22° C | 84% | 1011.1 hPa | 0 mm | 3.58 m/s, 317° | 0 W/m² | - |
| 1777953896 | 12.22° C | 84% | 1011.1 hPa | 0 mm | 3.58 m/s, 317° | 0 W/m² | - |
| 1777953770 | 12.22° C | 84% | 1011.2 hPa | 0 mm | 3.13 m/s, 325° | 0 W/m² | - |
| 1777953710 | 12.22° C | 84% | 1011.1 hPa | 0 mm | 3.58 m/s, 324° | 0 W/m² | - |
| 1777953656 | 12.22° C | 84% | 1011.2 hPa | 0 mm | 4.47 m/s, 324° | 0 W/m² | - |
| 1777953586 | 12.22° C | 84% | 1011.2 hPa | 0 mm | 4.92 m/s, 322° | 0 W/m² | - |
| 1777953526 | 12.22° C | 84% | 1011.2 hPa | 0 mm | 4.02 m/s, 330° | 0 W/m² | - |
| 1777953465 | 12.22° C | 84% | 1011.1 hPa | 0 mm | 4.02 m/s, 322° | 0 W/m² | - |
| 1777953402 | 12.22° C | 84% | 1011.2 hPa | 0 mm | 3.58 m/s, 335° | 0 W/m² | - |
| 1777953342 | 12.22° C | 84% | 1011.1 hPa | 0 mm | 3.13 m/s, 320° | 0 W/m² | - |
| 1777953281 | 12.22° C | 84% | 1011.2 hPa | 0 mm | 3.58 m/s, 324° | 0 W/m² | - |
| 1777953219 | 12.22° C | 84% | 1011.2 hPa | 0 mm | 4.02 m/s, 320° | 0 W/m² | - |
| 1777953158 | 12.22° C | 84% | 1011.1 hPa | 0 mm | 4.02 m/s, 334° | 0 W/m² | - |
| 1777953096 | 12.22° C | 84% | 1011.1 hPa | 0 mm | 3.58 m/s, 325° | 0 W/m² | - |
| 1777953036 | 12.22° C | 84% | 1011.1 hPa | 0 mm | 3.13 m/s, 334° | 0 W/m² | - |
| 1777952974 | 12.22° C | 84% | 1011.1 hPa | 0 mm | 2.68 m/s, 323° | 0 W/m² | - |
| 1777952913 | 12.22° C | 84% | 1011.2 hPa | 0 mm | 3.13 m/s, 319° | 0 W/m² | - |
| 1777952853 | 12.22° C | 84% | 1011.1 hPa | 0 mm | 3.13 m/s, 331° | 0 W/m² | - |
| 1777952791 | 12.22° C | 84% | 1011.2 hPa | 0 mm | 2.68 m/s, 333° | 0 W/m² | - |
| 1777952730 | 12.22° C | 84% | 1011.2 hPa | 0 mm | 3.13 m/s, 320° | 0 W/m² | - |
| 1777952669 | 12.22° C | 84% | 1011.2 hPa | 0 mm | 3.58 m/s, 332° | 0 W/m² | - |
| 1777952607 | 12.22° C | 83% | 1011.2 hPa | 0 mm | 2.68 m/s, 329° | 0 W/m² | - |
| 1777952546 | 12.22° C | 84% | 1011.2 hPa | 0 mm | 2.68 m/s, 332° | 0 W/m² | - |
* Rain latest hour (hover to see other rain measurements)
** Current wind speed in m/s (hover to see current wind gust speed)